• In United Kingdom
  • List of Countries
  • For 7 days
  • Water Temperature
  • Satellite Maps
  • Weather Map
  • Weather Widgets
  • user-avatar
    Login

    Hourly Weather Top

    Today, 24 September, Monday

    Time Temperature Precipitation Wind Pressure Humidity
    00:00 +19°C° 1.1 mm 0 mps 684 mmHg 95%
    01:00 +19°C° 0 mm 0 mps 684 mmHg 96%
    02:00 +18°C° 0.5 mm 0 mps 683 mmHg 96%
    03:00 +18°C° 0.5 mm 0 mps 683 mmHg 96%
    04:00 +18°C° 0.5 mm 0 mps 683 mmHg 97%
    05:00 +19°C° 0.1 mm 0 mps 683 mmHg 95%
    06:00 +19°C° 0.1 mm 0 mps 684 mmHg 94%
    07:00 +20°C° 0 mm 0 mps 684 mmHg 91%
    08:00 +23°C° 0.1 mm 0 mps 685 mmHg 79%
    09:00 +25°C° 0.1 mm 0 mps 685 mmHg 68%
    10:00 +28°C° 0.1 mm 0 mps 685 mmHg 57%
    11:00 +30°C° 1 mm 1 mps 685 mmHg 58%
    12:00 +31°C° 1 mm 1 mps 684 mmHg 60%
    13:00 +30°C° 0 mm 1 mps 684 mmHg 67%
    14:00 +29°C° 1.1 mm 1 mps 683 mmHg 68%
    15:00 +29°C° 1.1 mm 1 mps 683 mmHg 69%
    16:00 +26°C° 1.1 mm 0 mps 683 mmHg 70%
    17:00 +24°C° 0.3 mm 0 mps 682 mmHg 76%
    18:00 +23°C° 0.3 mm 0 mps 682 mmHg 83%
    19:00 +21°C° 0.3 mm 0 mps 682 mmHg 89%
    20:00 +20°C° 0 mm 0 mps 683 mmHg 90%
    21:00 +20°C° 0 mm 0 mps 683 mmHg 91%
    22:00 +20°C° 0 mm 0 mps 683 mmHg 92%
    23:00 +20°C° 0 mm 0 mps 683 mmHg 93%

    Tomorrow, 25 September, Tuesday

    Time Temperature Precipitation Wind Pressure Humidity
    00:00 +19°C° 0 mm 0 mps 683 mmHg 94%
    01:00 +19°C° 0 mm 0 mps 683 mmHg 95%
    02:00 +19°C° 0 mm 0 mps 682 mmHg 95%
    03:00 +19°C° 0 mm 0 mps 682 mmHg 96%
    04:00 +18°C° 0 mm 0 mps 682 mmHg 96%
    05:00 +19°C° 0 mm 0 mps 682 mmHg 94%
    06:00 +20°C° 0 mm 0 mps 683 mmHg 91%
    07:00 +21°C° 0 mm 0 mps 683 mmHg 89%
    08:00 +23°C° 0 mm 0 mps 683 mmHg 77%
    09:00 +26°C° 0 mm 0 mps 684 mmHg 64%
    10:00 +29°C° 0 mm 0 mps 685 mmHg 52%
    11:00 +32°C° 0.1 mm 1 mps 684 mmHg 51%
    12:00 +32°C° 0.1 mm 1 mps 683 mmHg 51%
    13:00 +32°C° 0.1 mm 1 mps 683 mmHg 50%
    14:00 +31°C° 0.3 mm 1 mps 682 mmHg 54%
    15:00 +30°C° 0.3 mm 1 mps 682 mmHg 57%
    16:00 +30°C° 0.3 mm 1 mps 681 mmHg 61%
    17:00 +25°C° 0.2 mm 0 mps 681 mmHg 69%
    18:00 +23°C° 0.2 mm 0 mps 681 mmHg 77%
    19:00 +21°C° 0.2 mm 0 mps 681 mmHg 86%
    20:00 +21°C° 0.1 mm 0 mps 682 mmHg 88%
    21:00 +21°C° 0.1 mm 0 mps 682 mmHg 90%
    22:00 +20°C° 0.1 mm 0 mps 682 mmHg 92%
    23:00 +20°C° 0.1 mm 0 mps 682 mmHg 92%

    Day after tomorrow, 26 September, Wednesday

    Time Temperature Precipitation Wind Pressure Humidity
    00:00 +20°C° 0.1 mm 0 mps 682 mmHg 93%
    01:00 +20°C° 0.1 mm 0 mps 682 mmHg 94%
    02:00 +19°C° 0 mm 0 mps 681 mmHg 95%
    03:00 +19°C° 0 mm 0 mps 681 mmHg 96%
    04:00 +19°C° 0 mm 0 mps 681 mmHg 97%
    05:00 +20°C° 0 mm 0 mps 681 mmHg 94%
    06:00 +20°C° 0 mm 0 mps 682 mmHg 92%
    07:00 +21°C° 0 mm 0 mps 683 mmHg 90%
    08:00 +24°C° 0 mm 0 mps 683 mmHg 78%
    09:00 +26°C° 0 mm 0 mps 684 mmHg 66%
    10:00 +29°C° 0 mm 0 mps 685 mmHg 54%
    11:00 +32°C° 0 mm 1 mps 684 mmHg 51%
    12:00 +32°C° 0 mm 1 mps 683 mmHg 47%
    13:00 +33°C° 0 mm 1 mps 683 mmHg 44%
    14:00 +32°C° 0.1 mm 1 mps 682 mmHg 49%
    15:00 +31°C° 0.1 mm 1 mps 681 mmHg 53%
    16:00 +30°C° 0.1 mm 1 mps 681 mmHg 58%
    17:00 +28°C° 0.1 mm 1 mps 681 mmHg 67%
    18:00 +24°C° 0.1 mm 0 mps 681 mmHg 75%
    19:00 +22°C° 0.1 mm 0 mps 681 mmHg 84%
    20:00 +22°C° 0.1 mm 0 mps 682 mmHg 86%
    21:00 +21°C° 0.1 mm 0 mps 682 mmHg 88%
    22:00 +21°C° 0.1 mm 0 mps 682 mmHg 90%
    23:00 +20°C° 0.1 mm 0 mps 682 mmHg 91%

    27 September, Thursday

    Time Temperature Precipitation Wind Pressure Humidity
    00:00 +20°C° 0.1 mm 0 mps 682 mmHg 92%
    01:00 +20°C° 0.1 mm 0 mps 681 mmHg 93%
    02:00 +20°C° 0 mm 0 mps 681 mmHg 93%
    03:00 +19°C° 0 mm 0 mps 681 mmHg 94%
    04:00 +19°C° 0 mm 0 mps 681 mmHg 94%
    05:00 +20°C° 0 mm 0 mps 681 mmHg 92%
    06:00 +21°C° 0 mm 0 mps 682 mmHg 89%
    07:00 +22°C° 0 mm 0 mps 682 mmHg 87%
    08:00 +24°C° 0 mm 0 mps 683 mmHg 76%
    09:00 +27°C° 0 mm 0 mps 684 mmHg 66%
    10:00 +31°C° 0 mm 1 mps 684 mmHg 55%
    11:00 +31°C° 0.7 mm 1 mps 684 mmHg 57%
    12:00 +31°C° 0.7 mm 1 mps 683 mmHg 59%
    13:00 +32°C° 0.7 mm 1 mps 682 mmHg 61%
    14:00 +31°C° 0.8 mm 1 mps 682 mmHg 64%
    15:00 +30°C° 0.8 mm 1 mps 681 mmHg 67%
    16:00 +29°C° 0.8 mm 1 mps 681 mmHg 70%
    17:00 +25°C° 0.3 mm 0 mps 681 mmHg 76%
    18:00 +23°C° 0.3 mm 0 mps 681 mmHg 82%
    19:00 +22°C° 0.3 mm 0 mps 681 mmHg 87%
    20:00 +21°C° 0.1 mm 0 mps 682 mmHg 89%
    21:00 +21°C° 0.1 mm 0 mps 682 mmHg 91%
    22:00 +21°C° 0.1 mm 0 mps 682 mmHg 92%
    23:00 +20°C° 0 mm 0 mps 682 mmHg 93%

    28 September, Friday

    Time Temperature Precipitation Wind Pressure Humidity
    00:00 +20°C° 0 mm 0 mps 682 mmHg 94%
    01:00 +20°C° 0 mm 0 mps 681 mmHg 95%
    02:00 +19°C° 0 mm 0 mps 681 mmHg 95%
    03:00 +19°C° 0 mm 0 mps 681 mmHg 95%
    04:00 +19°C° 0 mm 0 mps 681 mmHg 96%
    05:00 +20°C° 0 mm 0 mps 681 mmHg 94%
    06:00 +20°C° 0 mm 0 mps 682 mmHg 92%
    07:00 +21°C° 0 mm 0 mps 682 mmHg 90%
    08:00 +24°C° 0 mm 0 mps 683 mmHg 76%
    09:00 +27°C° 0 mm 0 mps 684 mmHg 63%
    10:00 +32°C° 0 mm 1 mps 684 mmHg 50%
    11:00 +32°C° 0.4 mm 1 mps 683 mmHg 52%
    12:00 +32°C° 0.4 mm 1 mps 683 mmHg 54%
    13:00 +32°C° 0.4 mm 1 mps 682 mmHg 56%
    14:00 +30°C° 0.6 mm 1 mps 682 mmHg 61%
    15:00 +29°C° 0.6 mm 1 mps 681 mmHg 66%
    16:00 +28°C° 0.6 mm 1 mps 681 mmHg 70%
    17:00 +27°C° 0.6 mm 1 mps 681 mmHg 77%
    18:00 +25°C° 0.6 mm 1 mps 681 mmHg 83%
    19:00 +21°C° 0.6 mm 0 mps 681 mmHg 89%
    20:00 +21°C° 0.1 mm 0 mps 682 mmHg 91%
    21:00 +21°C° 0.1 mm 0 mps 682 mmHg 92%
    22:00 +20°C° 0.1 mm 0 mps 682 mmHg 93%
    23:00 +20°C° 0.1 mm 0 mps 682 mmHg 94%

    29 September, Saturday

    Time Temperature Precipitation Wind Pressure Humidity
    00:00 +20°C° 0.1 mm 0 mps 681 mmHg 95%
    01:00 +20°C° 0.1 mm 0 mps 681 mmHg 95%
    02:00 +19°C° 0 mm 0 mps 681 mmHg 95%
    03:00 +19°C° 0 mm 0 mps 681 mmHg 95%
    04:00 +19°C° 0 mm 0 mps 680 mmHg 96%
    05:00 +20°C° 0 mm 0 mps 681 mmHg 93%
    06:00 +20°C° 0 mm 0 mps 682 mmHg 91%
    07:00 +21°C° 0 mm 0 mps 682 mmHg 89%
    08:00 +24°C° 0.1 mm 0 mps 683 mmHg 76%
    09:00 +27°C° 0.1 mm 0 mps 683 mmHg 64%
    10:00 +31°C° 0.1 mm 1 mps 684 mmHg 52%
    11:00 +31°C° 0.7 mm 1 mps 683 mmHg 54%
    12:00 +31°C° 0.7 mm 1 mps 682 mmHg 57%
    13:00 +31°C° 0.7 mm 1 mps 682 mmHg 59%
    14:00 +30°C° 0.8 mm 1 mps 681 mmHg 62%
    15:00 +29°C° 0.8 mm 1 mps 681 mmHg 65%
    16:00 +29°C° 0.8 mm 1 mps 681 mmHg 69%
    17:00 +27°C° 0.3 mm 1 mps 681 mmHg 76%
    18:00 +25°C° 0.3 mm 1 mps 681 mmHg 82%
    19:00 +21°C° 0.3 mm 0 mps 681 mmHg 89%
    20:00 +21°C° 0.1 mm 0 mps 682 mmHg 91%
    21:00 +21°C° 0.1 mm 0 mps 682 mmHg 92%
    22:00 +20°C° 0.1 mm 0 mps 682 mmHg 93%
    23:00 +20°C° 0.9 mm 0 mps 682 mmHg 94%
    Show more